Temperature
9 11 11 11 11 11 11 12 12 12 11 10 11 12 12 11 10 10 10 9 9 8 8 8 8 9 9 9 9 9 9 9 9 9 9 9 9 9 9 9 9 9 9 9
11 10 10 10 9 10 10 11 11 11 10 10 11 11 12 11 10 9 9 8 8 7 7 7 7 8 8 9 9 9 9 9 9 9 9 9 9 9 9 9 9 9 9 9
10 9 8 9 9 9 10 10 10 10 10 9 9 11 11 11 9 8 7 7 7 6 6 6 7 7 7 8 8 9 9 9 9 9 9 9 8 8 8 8 8 8 8 8
9 8 8 8 8 8 9 9 9 9 9 10 10 11 12 11 9 8 8 7 6 6 6 5 6 6 7 7 7 8 8 8 8 8 8 8 8 8 8 8 8 8 8 8
8 7 7 8 8 8 8 8 8 8 9 9 10 9 11 10 9 8 8 6 5 5 5 5 5 6 6 7 7 7 7 8 8 8 8 8 8 7 7 7 7 7 7 7
7 7 7 7 8 7 8 8 8 8 9 9 10 9 10 9 9 8 7 6 5 4 4 4 5 5 5 6 6 7 7 7 7 7 7 7 7 7 7 7 7 7 7 7
7 7 6 6 7 7 8 8 9 9 9 9 9 9 9 8 7 7 6 5 4 4 4 4 4 4 5 5 6 6 6 6 6 7 7 7 7 7 6 6 6 6 6 6
6 7 6 6 6 6 7 8 8 8 9 10 8 8 9 7 5 5 4 4 4 3 3 3 3 4 4 4 5 5 5 6 6 6 6 6 6 6 6 6 6 6 6 6
5 6 5 5 5 6 7 7 7 7 7 7 9 8 7 6 5 4 4 3 3 3 3 3 3 3 3 4 4 5 5 5 5 5 5 5 5 5 5 5 5 5 5 5
4 4 5 5 5 5 6 6 6 6 6 7 8 8 7 6 5 4 4 3 2 2 2 2 2 3 3 3 4 4 4 5 5 5 5 5 5 5 5 4 5 5 5 5
3 3 4 5 5 5 5 5 5 6 6 6 7 8 6 5 4 3 3 2 2 2 1 1 2 2 2 2 3 3 4 4 4 4 4 4 4 4 4 4 4 4 4 4
3 3 4 5 4 4 4 4 4 5 5 5 6 6 4 4 3 2 2 1 1 1 1 1 1 1 1 1 2 2 3 3 3 3 3 3 3 3 3 3 3 4 4 4
2 2 3 4 4 3 3 3 3 3 4 4 5 5 3 3 2 1 1 0 -0 -0 -0 -0 0 0 0 1 1 1 2 2 2 2 3 3 3 3 3 3 3 3 3 3
2 2 2 3 4 3 2 2 2 2 3 3 4 4 3 2 1 0 -0 -1 -1 -1 -1 -1 -1 -1 -0 -0 0 1 1 1 2 2 2 2 2 2 2 2 2 2 2 2
1 1 2 2 2 2 1 1 1 1 2 2 3 2 1 1 0 -0 -1 -1 -1 -2 -2 -2 -2 -1 -1 -1 -0 -0 0 1 1 1 1 1 2 2 2 2 2 2 2 2
1 1 1 1 1 1 1 1 1 1 1 1 1 1 0 -0 -1 -1 -1 -2 -2 -2 -2 -2 -2 -2 -2 -1 -1 -1 -0 0 0 1 1 1 1 1 1 1 1 1 1 1
-0 -0 -0 1 1 1 1 -0 -0 -0 -1 -0 -0 -0 -1 -1 -1 -2 -2 -2 -3 -3 -3 -3 -3 -2 -2 -2 -1 -1 -1 -0 -0 -0 -0 0 0 0 0 0 0 0 0 1
-1 -1 -0 0 0 -0 0 -1 -1 -1 -1 -2 -1 -1 -2 -2 -2 -3 -3 -3 -3 -3 -3 -3 -3 -3 -2 -2 -2 -1 -1 -1 -1 -1 -1 -1 -1 -0 -0 -0 -0 -0 -0 0
-1 -1 -1 -1 -0 0 -1 -1 -2 -2 -2 -2 -2 -2 -3 -3 -2 -2 -3 -4 -4 -4 -3 -3 -3 -3 -3 -3 -2 -2 -2 -2 -2 -2 -2 -1 -1 -1 -1 -1 -1 -1 -1 -1
-2 -2 -1 -1 -1 -1 -1 -2 -3 -2 -1 -3 -3 -3 -4 -3 -1 -1 -4 -4 -4 -4 -4 -4 -4 -3 -3 -3 -3 -3 -2 -2 -2 -2 -2 -2 -2 -2 -2 -1 -1 -1 -1 -1
-2 -2 -2 -2 -2 -1 -2 -3 -2 -1 -2 -4 -4 -4 -5 -4 -4 -5 -5 -5 -4 -4 -4 -4 -4 -4 -4 -3 -3 -3 -3 -3 -3 -3 -3 -2 -2 -2 -2 -2 -2 -2 -2 -2
-3 -3 -3 -2 -2 -2 -4 -3 -3 -3 -4 -5 -5 -5 -5 -6 -6 -6 -5 -5 -5 -5 -4 -4 -4 -4 -4 -4 -4 -4 -4 -3 -3 -3 -3 -3 -3 -3 -3 -3 -3 -3 -3 -3
-4 -3 -3 -3 -2 -4 -5 -5 -5 -5 -5 -5 -6 -6 -6 -6 -6 -6 -6 -6 -6 -6 -5 -5 -5 -4 -4 -4 -4 -4 -4 -4 -4 -3 -3 -3 -3 -3 -3 -3 -3 -3 -3 -3
-4 -5 -4 -4 -3 -4 -5 -5 -6 -6 -6 -6 -6 -6 -6 -7 -7 -7 -7 -7 -6 -6 -6 -6 -5 -5 -5 -5 -5 -5 -5 -4 -4 -4 -4 -4 -4 -4 -4 -4 -4 -4 -4 -4
-5 -5 -5 -5 -4 -5 -5 -6 -6 -6 -6 -7 -7 -7 -7 -7 -7 -7 -7 -7 -7 -7 -7 -6 -6 -6 -6 -5 -5 -5 -5 -5 -5 -5 -5 -5 -4 -4 -4 -4 -4 -5 -5 -5
-6 -6 -5 -5 -5 -6 -6 -6 -7 -7 -7 -7 -7 -7 -8 -8 -8 -8 -8 -8 -7 -7 -7 -7 -7 -6 -6 -6 -6 -6 -6 -5 -5 -5 -5 -5 -5 -5 -5 -5 -5 -5 -5 -5
Wind_Speed
0 3 4 6 7 8 7 9 12 10 5 6 12 14 12 8 7 7 6 6 6 6 5 3 4 4 4 4 4 4 5 4 4 4 4 4 4 3 3 2 3 4 4 5
2 4 5 5 5 6 8 10 11 8 4 6 11 14 11 8 6 5 6 6 6 5 4 3 3 3 3 4 4 4 5 5 5 5 4 4 4 3 3 2 3 3 4 5
4 2 2 3 4 6 9 10 10 9 8 6 8 10 8 6 4 4 4 5 4 4 4 3 4 3 3 4 4 4 5 5 5 5 4 4 3 3 3 3 2 3 3 4
3 3 2 4 5 6 8 6 8 9 8 6 5 7 7 5 3 4 4 4 4 4 4 3 3 3 4 3 4 4 4 4 4 5 5 6 5 5 4 4 3 3 3 3
3 2 3 5 6 6 6 6 8 9 9 9 8 7 6 2 4 4 4 4 4 4 3 3 3 3 3 2 2 3 3 3 4 5 6 6 5 4 4 4 4 3 3 3
4 3 3 4 4 4 4 4 5 6 6 8 9 8 6 2 4 3 3 4 5 5 4 3 1 1 1 2 2 2 3 3 3 4 4 5 6 5 5 5 4 3 2 2
4 3 1 2 3 2 2 3 3 4 6 7 4 6 5 2 2 3 3 4 5 5 4 4 3 1 1 1 2 2 3 3 3 3 3 4 4 5 6 5 4 4 2 2
4 4 2 2 3 4 4 5 5 6 7 7 5 7 2 4 4 4 4 5 5 5 5 4 3 2 1 1 1 2 2 2 3 3 3 3 3 3 3 3 3 3 3 2
4 5 4 4 4 3 4 5 5 7 8 8 7 5 3 3 5 6 6 7 6 6 6 5 4 3 2 1 1 1 2 2 3 3 3 3 3 3 3 3 2 2 2 2
3 7 6 4 3 2 3 3 3 4 6 8 8 7 5 3 5 6 7 7 7 6 6 5 4 4 3 2 2 1 2 3 2 3 3 2 3 3 3 3 2 2 1 1
3 5 6 3 2 4 2 2 4 5 6 6 8 4 3 4 4 5 7 7 7 6 6 5 5 4 3 3 2 2 2 3 3 2 2 3 3 3 3 2 2 2 1 1
2 3 6 6 2 2 2 3 4 5 6 6 7 5 4 5 5 6 8 8 7 6 6 5 5 4 4 4 3 3 2 3 2 2 3 3 3 3 3 2 2 2 1 1
2 3 5 3 2 1 1 3 4 5 5 7 8 5 4 7 8 9 9 9 8 7 6 5 5 4 4 4 4 3 2 2 2 2 3 3 3 2 2 2 1 1 1 1
4 4 6 8 7 4 5 6 5 4 5 7 9 8 6 10 10 10 10 9 8 7 7 6 5 5 4 4 4 3 3 2 2 2 2 2 2 2 2 1 1 1 1 1
2 5 7 10 9 5 6 8 6 5 7 8 9 8 8 10 9 9 9 9 8 8 8 7 6 5 5 5 4 4 3 2 2 2 2 1 1 1 2 2 1 1 1 0
3 4 6 8 6 5 6 7 7 7 8 8 9 7 7 9 7 7 8 8 9 9 8 7 7 6 5 5 4 4 3 2 1 1 1 1 1 1 1 1 1 1 1 1
3 3 4 6 5 5 5 5 4 3 3 4 5 6 8 8 8 8 8 8 9 10 9 7 7 6 5 5 4 3 3 2 1 1 1 1 1 1 1 1 1 1 1 1
4 4 3 4 4 4 0 3 3 2 2 3 4 6 7 8 8 6 6 8 10 10 9 7 7 6 5 5 4 3 2 2 2 1 1 1 1 1 1 1 0 0 1 1
4 3 3 2 4 5 2 3 3 3 3 4 5 7 8 9 6 4 8 10 10 10 9 7 6 6 5 4 4 3 2 2 2 2 2 2 1 1 0 0 0 0 0 1
0 1 2 2 3 3 2 5 6 4 3 4 6 8 9 9 5 6 10 11 11 9 8 7 6 5 5 5 4 2 2 2 2 2 2 2 1 1 1 1 1 0 0 0
1 1 3 4 4 3 4 7 4 2 4 6 7 7 7 6 6 9 10 10 9 9 8 7 6 5 5 5 4 3 2 3 3 3 2 2 2 1 1 1 1 0 0 0
2 2 2 3 4 3 4 3 2 4 5 6 7 6 6 7 8 9 9 9 10 10 9 7 6 5 5 5 4 3 3 4 4 3 3 2 2 2 1 1 1 1 0 0
2 2 2 3 2 2 2 2 4 5 6 6 7 7 6 7 8 9 9 9 9 9 8 7 6 5 5 5 4 4 4 4 4 3 3 3 3 2 2 1 1 1 1 0
1 1 3 4 4 4 4 4 5 5 6 7 7 7 6 7 8 8 8 8 8 8 8 7 6 5 5 5 5 4 4 4 3 3 3 2 2 2 2 2 1 1 1 1
3 2 3 5 5 6 4 4 6 7 7 7 7 6 6 6 7 7 7 8 7 7 7 7 6 6 6 6 6 5 4 4 3 3 3 2 2 2 2 2 2 2 2 3
2 3 4 5 5 6 7 6 6 7 7 7 7 7 6 6 7 7 7 7 7 7 7 6 6 6 6 6 6 5 4 3 3 3 2 2 2 2 2 2 2 4 3 4
Wind_Direction
201 210 227 235 234 250 260 260 266 271 273 258 258 267 271 266 264 267 270 268 264 259 254 235 218 204 196 197 201 201 204 207 201 192 187 183 185 178 174 168 173 175 171 169
213 243 261 255 246 251 251 259 268 277 276 267 271 271 268 260 254 265 276 276 270 269 263 244 212 194 194 196 200 202 205 205 202 198 193 191 183 179 171 165 166 171 173 173
238 300 284 239 243 262 253 251 265 276 297 259 276 269 245 247 246 277 295 296 296 282 262 247 218 205 201 203 203 202 204 203 201 197 184 171 162 155 163 172 168 174 179 173
255 281 269 252 252 262 265 260 267 272 272 266 251 276 253 248 263 296 310 322 318 306 289 268 230 213 208 207 201 197 192 191 191 189 187 182 184 183 186 179 172 169 170 166
266 287 267 262 269 256 268 283 265 259 256 262 242 255 266 245 271 295 315 332 338 333 317 293 250 219 205 190 186 184 176 176 180 187 191 190 190 187 181 174 168 165 161 160
276 276 285 283 284 254 279 279 255 234 237 247 242 239 268 263 271 292 310 338 348 349 344 332 303 209 160 141 154 169 171 171 172 181 186 190 186 182 179 176 172 169 165 160
304 269 301 315 305 263 290 279 267 243 232 246 232 233 260 322 335 304 315 334 346 352 354 357 3 11 71 115 133 154 161 161 163 169 177 184 183 182 183 181 178 173 174 179
309 290 322 333 276 269 250 244 248 257 259 268 249 240 263 20 3 353 351 352 2 6 6 4 3 6 18 52 110 144 153 152 147 154 156 162 168 173 177 177 174 178 185 190
306 292 326 321 312 263 246 238 267 271 272 271 254 248 282 353 359 4 5 8 5 8 6 1 3 13 17 28 49 125 132 127 134 141 138 138 149 151 150 156 163 168 171 173
295 286 299 316 293 308 269 256 250 247 261 259 258 260 291 329 342 357 2 359 356 2 3 360 1 8 13 18 41 70 86 97 111 128 126 121 125 133 140 137 137 147 144 145
296 275 292 293 268 284 254 237 261 260 254 260 265 264 7 351 355 353 351 349 346 355 358 358 358 1 11 23 42 66 77 79 78 85 104 108 105 108 119 125 129 135 138 138
312 282 278 282 296 295 264 267 253 256 258 253 261 267 26 7 3 358 348 346 347 351 355 0 2 8 13 16 22 40 65 76 75 79 84 97 98 108 111 113 115 126 155 159
315 276 292 286 194 94 299 313 292 277 266 256 255 259 34 15 5 0 354 350 353 355 355 0 7 10 12 13 16 26 43 60 73 80 83 93 97 101 108 111 108 116 136 167
294 252 253 267 291 298 294 306 298 265 262 265 261 278 323 351 349 351 354 354 357 1 1 359 358 359 3 8 10 15 25 42 64 77 77 80 92 94 92 90 95 108 131 148
292 265 264 274 286 285 293 296 288 267 272 273 281 285 319 332 330 338 347 354 0 360 358 356 352 352 354 356 358 1 7 26 54 82 82 65 67 79 77 67 60 63 74 100
297 276 282 279 279 282 291 300 283 276 278 277 287 293 324 324 331 342 349 352 355 348 344 344 344 344 345 344 343 345 352 4 32 71 75 61 57 63 69 64 54 57 55 64
272 267 275 278 293 284 277 304 288 288 296 286 284 302 331 339 340 336 338 345 348 342 337 336 334 330 329 329 331 329 339 9 28 43 60 75 63 51 56 93 87 59 46 52
255 256 260 286 291 251 2 16 331 277 345 337 317 326 333 329 321 321 336 343 340 341 338 333 331 328 328 330 331 333 353 20 24 20 22 47 43 26 17 68 90 46 36 21
247 247 254 264 268 271 290 357 335 283 296 1 338 337 342 338 322 341 2 348 337 335 336 332 331 330 331 335 335 348 15 26 25 6 353 353 358 336 338 356 349 331 334 350
30 245 245 253 262 268 340 337 323 270 262 17 345 333 337 341 331 332 345 338 336 341 344 343 341 343 346 348 351 1 17 18 4 343 332 336 327 309 326 321 319 299 241 302
319 263 243 251 256 273 345 331 322 271 330 344 334 328 331 328 316 320 329 335 339 342 346 349 348 350 349 350 353 357 8 356 346 340 335 340 343 346 338 335 340 349 72 42
265 256 243 241 243 269 9 6 349 324 329 323 326 325 320 321 324 326 331 335 339 342 345 349 349 350 352 355 353 353 351 345 345 346 346 345 344 352 343 347 345 347 57 78
241 253 264 241 261 344 338 327 324 322 312 317 320 321 320 320 324 328 331 334 336 338 341 344 345 346 350 354 353 344 341 342 343 348 348 346 348 350 348 339 325 323 320 307
258 277 254 263 268 290 297 313 323 321 315 315 316 317 320 319 321 324 328 332 335 337 339 340 343 345 345 348 347 342 340 341 342 343 347 348 351 350 351 344 328 321 315 309
281 255 257 262 289 303 290 310 322 320 319 320 322 323 323 320 320 322 322 326 329 332 335 337 337 337 337 339 339 343 344 341 336 338 345 349 352 347 347 346 335 319 309 300
253 248 260 273 293 290 297 311 316 313 315 319 322 325 327 322 315 317 318 321 324 327 330 335 337 336 335 336 337 341 341 336 331 333 340 342 341 341 339 341 352 2 347 343
Height
1508 1507 1504 1504 1506 1504 1502 1501 1498 1497 1500 1501 1495 1491 1490 1492 1493 1492 1491 1491 1490 1489 1490 1489 1489 1490 1491 1493 1495 1496 1498 1500 1501 1502 1503 1504 1506 1507 1508 1510 1511 1512 1513 1514
1506 1506 1507 1507 1507 1506 1503 1501 1497 1496 1500 1500 1493 1489 1487 1488 1489 1490 1489 1488 1487 1486 1486 1485 1486 1487 1488 1489 1491 1492 1494 1496 1498 1499 1500 1501 1503 1504 1506 1507 1508 1510 1511 1512
1505 1508 1509 1508 1507 1506 1501 1500 1498 1499 1499 1498 1495 1483 1482 1484 1487 1487 1487 1486 1485 1484 1483 1483 1483 1484 1485 1486 1487 1488 1490 1492 1494 1496 1497 1498 1500 1501 1503 1504 1505 1507 1508 1509
1507 1509 1509 1507 1505 1505 1499 1500 1501 1501 1499 1491 1493 1483 1474 1479 1482 1484 1484 1483 1482 1482 1481 1481 1480 1481 1482 1483 1484 1485 1487 1489 1491 1492 1493 1495 1496 1497 1499 1501 1502 1504 1505 1506
1507 1509 1507 1505 1504 1505 1501 1501 1500 1499 1496 1493 1489 1488 1472 1479 1481 1481 1483 1482 1481 1481 1480 1479 1478 1479 1479 1480 1481 1483 1485 1486 1487 1489 1490 1492 1493 1495 1497 1498 1499 1501 1502 1504
1509 1510 1509 1506 1505 1505 1503 1500 1496 1496 1493 1490 1483 1484 1473 1478 1480 1481 1482 1482 1481 1480 1479 1478 1477 1478 1478 1478 1479 1481 1482 1483 1485 1486 1488 1489 1491 1492 1494 1495 1496 1498 1500 1501
1508 1507 1509 1508 1505 1504 1503 1498 1492 1489 1486 1479 1482 1482 1479 1481 1483 1483 1483 1482 1482 1480 1479 1478 1477 1476 1476 1476 1477 1478 1480 1481 1482 1484 1485 1487 1488 1490 1491 1492 1494 1495 1497 1498
1511 1506 1507 1508 1507 1505 1502 1499 1496 1490 1479 1474 1481 1479 1479 1485 1486 1486 1485 1483 1482 1480 1479 1478 1477 1476 1475 1475 1476 1477 1478 1479 1480 1482 1483 1484 1486 1487 1488 1490 1491 1493 1494 1495
1515 1509 1510 1509 1508 1506 1501 1499 1499 1495 1488 1485 1474 1476 1483 1486 1486 1486 1485 1483 1482 1481 1480 1478 1477 1476 1475 1475 1475 1475 1476 1477 1479 1480 1481 1482 1484 1485 1486 1488 1489 1490 1492 1493
1521 1516 1510 1509 1508 1506 1505 1502 1501 1497 1491 1481 1473 1474 1479 1483 1485 1486 1486 1485 1483 1482 1480 1479 1478 1476 1475 1475 1474 1475 1475 1476 1477 1479 1480 1481 1482 1483 1484 1486 1487 1488 1489 1490
1523 1519 1511 1508 1506 1505 1505 1505 1502 1496 1492 1486 1477 1478 1486 1487 1488 1489 1488 1487 1485 1483 1481 1479 1478 1477 1475 1474 1474 1474 1474 1475 1476 1477 1478 1479 1480 1482 1483 1484 1485 1486 1487 1488
1523 1519 1511 1506 1507 1508 1506 1505 1504 1501 1494 1490 1484 1485 1490 1491 1491 1491 1489 1488 1485 1483 1481 1480 1478 1477 1475 1474 1473 1473 1473 1474 1475 1476 1477 1478 1479 1480 1481 1482 1483 1484 1485 1485
1524 1521 1512 1503 1507 1509 1509 1508 1507 1505 1500 1491 1486 1487 1492 1492 1492 1492 1491 1488 1486 1484 1482 1480 1478 1476 1475 1474 1473 1473 1473 1474 1475 1475 1476 1477 1478 1479 1480 1480 1481 1482 1482 1483
1524 1520 1517 1509 1503 1508 1509 1509 1508 1507 1501 1493 1489 1488 1492 1495 1495 1494 1492 1490 1487 1485 1482 1480 1478 1477 1475 1474 1473 1473 1473 1473 1474 1475 1475 1476 1477 1477 1478 1479 1479 1480 1480 1480
1523 1519 1515 1512 1510 1510 1510 1510 1508 1508 1504 1499 1494 1494 1497 1499 1498 1496 1494 1491 1488 1486 1483 1481 1479 1477 1475 1474 1473 1473 1473 1473 1473 1474 1474 1475 1476 1476 1476 1477 1477 1478 1478 1478
1523 1520 1517 1513 1510 1509 1509 1508 1507 1507 1506 1503 1500 1499 1502 1501 1499 1497 1494 1491 1489 1486 1483 1481 1479 1477 1475 1474 1473 1472 1472 1472 1472 1473 1473 1474 1474 1475 1475 1475 1476 1476 1476 1476
1523 1521 1517 1509 1508 1507 1506 1508 1508 1509 1508 1506 1503 1504 1503 1500 1499 1497 1494 1492 1490 1486 1483 1481 1478 1476 1475 1474 1473 1472 1471 1471 1472 1472 1472 1472 1473 1473 1474 1474 1474 1474 1474 1474
1523 1520 1517 1512 1510 1511 1510 1512 1511 1509 1509 1509 1507 1505 1504 1501 1499 1497 1494 1492 1489 1486 1483 1480 1478 1476 1474 1473 1472 1472 1471 1471 1471 1471 1471 1471 1471 1472 1472 1472 1472 1472 1472 1472
1522 1520 1516 1513 1509 1504 1509 1512 1512 1510 1507 1509 1508 1506 1504 1501 1497 1494 1494 1492 1489 1486 1483 1480 1478 1476 1474 1472 1471 1471 1470 1470 1470 1470 1470 1470 1470 1470 1470 1470 1470 1470 1470 1470
1521 1521 1518 1515 1511 1507 1511 1513 1511 1511 1505 1509 1508 1506 1504 1501 1496 1495 1493 1491 1488 1485 1483 1480 1477 1475 1474 1472 1471 1470 1470 1469 1469 1469 1469 1469 1469 1468 1468 1468 1468 1468 1468 1468
1521 1520 1519 1516 1513 1508 1515 1514 1511 1509 1509 1510 1508 1507 1505 1502 1501 1498 1493 1490 1487 1485 1482 1479 1477 1475 1473 1472 1471 1470 1469 1469 1469 1468 1468 1468 1467 1467 1467 1467 1467 1467 1466 1466
1522 1520 1519 1517 1515 1515 1517 1514 1515 1514 1512 1510 1508 1506 1504 1501 1499 1496 1493 1489 1486 1483 1481 1479 1476 1474 1473 1472 1471 1469 1469 1469 1468 1468 1467 1466 1466 1466 1465 1465 1465 1465 1465 1464
1524 1523 1520 1519 1518 1518 1517 1516 1515 1513 1511 1509 1507 1505 1502 1500 1497 1494 1491 1488 1485 1483 1480 1478 1476 1474 1472 1471 1470 1469 1468 1468 1467 1466 1466 1465 1465 1464 1464 1463 1463 1463 1463 1463
1524 1524 1523 1519 1516 1516 1516 1515 1513 1512 1510 1508 1505 1503 1500 1498 1495 1492 1489 1487 1484 1482 1479 1477 1475 1473 1471 1470 1469 1468 1467 1466 1466 1465 1464 1464 1463 1463 1462 1462 1462 1461 1461 1461
1523 1523 1521 1518 1516 1515 1513 1513 1512 1510 1508 1505 1503 1501 1498 1496 1493 1491 1488 1485 1483 1480 1478 1476 1474 1472 1470 1469 1468 1467 1466 1465 1464 1464 1463 1462 1462 1461 1461 1460 1460 1460 1459 1459
1523 1522 1520 1516 1516 1515 1512 1511 1510 1508 1506 1503 1501 1498 1496 1494 1491 1489 1486 1484 1481 1479 1477 1475 1473 1471 1469 1468 1466 1465 1464 1464 1463 1462 1461 1461 1460 1460 1459 1459 1458 1457 1457 1457